This demonstration page uses our WeatherBlox Daily Observations layout. Learn more.

Left ArrowRight Arrow

38.88101, -77.10428

Hourly Observations for November 29, 2018

Temp ( °F °C ) Dew Point ( °F °C ) Humidity (%) Winds ( mph kmh ) Pressure ( in mb ) Visibility ( mi km ) Precip ( " mm )
12:52 am 00:52 Clear 32 0 17 -8.3 54 54 NW 12 19 30.01 1016 10 16.0934 0 0
1:52 am 01:52 Clear 32 0 17 -8.3 54 54 WNW 9 15 30.02 1017 10 16.0934 0 0
2:52 am 02:52 Partly Cloudy 32 0 17 -8.3 54 54 WNW 10 17 30.04 1017 10 16.0934 0 0
3:52 am 03:52 Partly Cloudy 32 0 18 -7.8 56 56 WNW 12 19 30.04 1017 10 16.0934 0 0
4:52 am 04:52 Partly Cloudy 32 0 18 -7.8 56 56 NW 10 17 30.06 1018 10 16.0934 0 0
5:52 am 05:52 Mostly Cloudy 32 0 18 -7.8 56 56 WNW 12 19 30.07 1018 10 16.0934 0 0
6:52 am 06:52 Mostly Cloudy 32 0 18 -7.8 56 56 WNW 9 15 30.1 1019 10 16.0934 0 0
7:52 am 07:52 Mostly Cloudy 33 0.6 19 -7.2 56 56 W 8 13 30.12 1020 10 16.0934 0 0
8:52 am 08:52 Mostly Cloudy 35 1.7 19 -7.2 52 52 WNW 14 22 30.13 1020 10 16.0934 0 0
9:52 am 09:52 Mostly Cloudy 37 2.8 20 -6.7 50 50 NW 13 20 30.14 1021 10 16.0934 0 0
10:52 am 10:52 Mostly Cloudy 39 3.9 20 -6.7 46 46 WNW 12 19 30.16 1021 10 16.0934 0 0
11:52 am 11:52 Cloudy 40 4.4 21 -6.1 47 47 WNW 8 13 30.13 1020 10 16.0934 0 0
12:52 pm 12:52 Mostly Cloudy 42 5.6 21 -6.1 43 43 W 12 19 30.11 1020 10 16.0934 0 0
1:52 pm 13:52 Mostly Sunny 41 5 21 -6.1 45 45 W 10 17 30.09 1019 10 16.0934 0 0
2:52 pm 14:52 Mostly Sunny 42 5.6 20 -6.7 41 41 WSW 8 13 30.07 1018 10 16.0934 0 0
3:52 pm 15:52 Mostly Sunny 41 5 19 -7.2 41 41 WNW 10 17 30.07 1018 10 16.0934 0 0
4:52 pm 16:52 Partly Cloudy 40 4.4 18 -7.8 41 41 W 9 15 30.08 1019 10 16.0934 0 0
5:52 pm 17:52 Partly Cloudy 39 3.9 18 -7.8 43 43 W 6 9 30.09 1019 10 16.0934 0 0
6:52 pm 18:52 Cloudy 39 3.9 18 -7.8 43 43 WNW 3 6 30.1 1019 10 16.0934 0 0
7:52 pm 19:52 Cloudy 39 3.9 19 -7.2 45 45 NNE 3 6 30.09 1019 10 16.0934 0 0
8:52 pm 20:52 Cloudy 39 3.9 21 -6.1 48 48 Calm 30.1 1019 10 16.0934 0 0
9:52 pm 21:52 Cloudy 39 3.9 22 -5.6 50 50 E 3 6 30.09 1019 10 16.0934 0 0
10:52 pm 22:52 Cloudy 39 3.9 23 -5 53 53 E 5 7 30.1 1019 10 16.0934 0 0
11:52 pm 23:52 Cloudy 39 3.9 21 -6.1 48 48 ESE 3 6 30.09 1019 10 16.0934 0 0

Powered by AerisWeather